DLH1MK EDDM-EKCH

Flight info

Callsign DLH1MK
Flight time 1h 13m
Altitude 34000
Route INPUD3Q INPUD Y102 UPALA M726 LONLI/N0424F360 M726 LASGA/N0430F370 DCT BKD/N0426F360 DCT LUWIL DCT BERIM/N0431F370 DCT MAKEL N851 GESKA Z711 MONAK
Aircraft A20N/M-SDE2E3FGHIRWXY/LB1

Departure

Time 2026-05-04 16:10
Airport Munich Airport (EDDM)

Arrival

Time 2026-05-04 17:23
Airport Copenhagen Kastrup Airport (EKCH)
Time Latitude Longitude Altitude Speed Heading
2026-05-04 15:40 48.35742 11.79914 1472 ft 0 kts 264°
2026-05-04 15:58 48.35744 11.79933 1472 ft 2 kts 264°
2026-05-04 15:58 48.35745 11.79956 1472 ft 2 kts 264°
2026-05-04 15:58 48.35747 11.79978 1472 ft 2 kts 264°
2026-05-04 15:58 48.35748 11.80001 1471 ft 2 kts 264°
2026-05-04 15:59 48.35747 11.80024 1471 ft 2 kts 287°
2026-05-04 15:59 48.35741 11.80044 1471 ft 2 kts 304°
2026-05-04 15:59 48.35731 11.80061 1471 ft 2 kts 321°
2026-05-04 15:59 48.35719 11.80073 1472 ft 2 kts 338°
2026-05-04 16:00 48.35708 11.80078 1472 ft 0 kts 352°
2026-05-04 16:00 48.35701 11.80079 1472 ft 0 kts 354°
2026-05-04 16:02 48.35702 11.80079 1472 ft 0 kts 354°
2026-05-04 16:02 48.35788 11.80059 1471 ft 10 kts 343°
2026-05-04 16:03 48.35827 11.79966 1471 ft 12 kts 263°
2026-05-04 16:03 48.35816 11.79833 1471 ft 12 kts 264°
2026-05-04 16:03 48.35806 11.79699 1472 ft 13 kts 264°
2026-05-04 16:03 48.35803 11.79556 1473 ft 13 kts 295°
2026-05-04 16:04 48.35891 11.79514 1472 ft 14 kts 354°
2026-05-04 16:04 48.35992 11.79496 1471 ft 0 kts 353°
2026-05-04 16:05 48.36018 11.79491 1472 ft 10 kts 354°
2026-05-04 16:05 48.36087 11.79232 1472 ft 18 kts 263°
2026-05-04 16:06 48.36070 11.79038 1474 ft 18 kts 265°
2026-05-04 16:06 48.36024 11.78416 1476 ft 23 kts 263°
2026-05-04 16:07 48.36000 11.78094 1477 ft 22 kts 265°
2026-05-04 16:07 48.35943 11.77361 1478 ft 24 kts 264°
2026-05-04 16:08 48.35929 11.77109 1478 ft 23 kts 285°
2026-05-04 16:08 48.36287 11.76970 1477 ft 18 kts 63°
2026-05-04 16:09 48.36388 11.78194 1474 ft 123 kts 84°
2026-05-04 16:09 48.36651 11.81575 2057 ft 177 kts 82°
2026-05-04 16:10 48.36945 11.85261 3406 ft 184 kts 77°
2026-05-04 16:11 48.40520 11.87071 4908 ft 237 kts 348°
2026-05-04 16:11 48.42083 11.86043 5490 ft 256 kts 325°
2026-05-04 16:12 48.45931 11.79658 7596 ft 289 kts 322°
2026-05-04 16:12 48.51415 11.75608 10026 ft 302 kts 334°
2026-05-04 16:13 48.55328 11.72838 11212 ft 324 kts 333°
2026-05-04 16:13 48.59408 11.69811 12757 ft 331 kts 332°
2026-05-04 16:14 48.63528 11.66703 14249 ft 337 kts 331°
2026-05-04 16:14 48.67752 11.63497 15683 ft 343 kts 331°
2026-05-04 16:15 48.74227 11.58565 17696 ft 353 kts 331°
2026-05-04 16:16 48.78616 11.55215 18994 ft 359 kts 330°
2026-05-04 16:16 48.85357 11.50054 20888 ft 368 kts 330°
2026-05-04 16:17 48.89961 11.46519 22122 ft 373 kts 330°
2026-05-04 16:18 48.96944 11.41144 23928 ft 381 kts 330°
2026-05-04 16:18 48.99324 11.39307 24506 ft 383 kts 330°
2026-05-04 16:19 49.06509 11.33752 26082 ft 392 kts 329°
2026-05-04 16:19 49.11396 11.29962 27097 ft 397 kts 329°
2026-05-04 16:20 49.18847 11.24293 28451 ft 407 kts 334°
2026-05-04 16:20 49.24421 11.22267 29233 ft 420 kts 352°
2026-05-04 16:21 49.33266 11.22228 30324 ft 429 kts 357°
2026-05-04 16:22 49.39257 11.22322 30988 ft 432 kts 357°
2026-05-04 16:22 49.48313 11.22401 31839 ft 439 kts 357°
2026-05-04 16:23 49.57487 11.22475 32944 ft 438 kts 356°
2026-05-04 16:24 49.69559 11.22489 34376 ft 435 kts 356°
2026-05-04 16:25 49.75610 11.22496 34883 ft 437 kts 356°
2026-05-04 16:26 49.87843 11.22572 35673 ft 441 kts 356°
2026-05-04 16:26 49.97029 11.22625 35947 ft 442 kts 356°
2026-05-04 16:28 50.12347 11.22714 35947 ft 441 kts 356°
2026-05-04 16:29 50.33847 11.22839 35949 ft 443 kts 356°
2026-05-04 16:31 50.49235 11.24329 35956 ft 444 kts
2026-05-04 16:32 50.67649 11.26430 35950 ft 444 kts 360°
2026-05-04 16:33 50.79948 11.27833 35952 ft 445 kts 360°
2026-05-04 16:34 50.89175 11.28889 35952 ft 445 kts 360°
2026-05-04 16:35 51.07630 11.31018 35947 ft 444 kts 359°
2026-05-04 16:36 51.16874 11.32088 35948 ft 444 kts 359°
2026-05-04 16:37 51.26120 11.33163 35947 ft 445 kts 359°
2026-05-04 16:38 51.38425 11.34603 35943 ft 445 kts 359°
2026-05-04 16:39 51.53784 11.36410 35943 ft 444 kts 359°
2026-05-04 16:40 51.66092 11.37866 35941 ft 444 kts 359°
2026-05-04 16:41 51.81380 11.39688 35946 ft 442 kts 359°
2026-05-04 16:43 51.96681 11.41521 35945 ft 441 kts 359°
2026-05-04 16:43 52.05825 11.42625 35932 ft 441 kts 358°
2026-05-04 16:45 52.24117 11.44841 35930 ft 440 kts 358°
2026-05-04 16:46 52.39281 11.46695 35926 ft 439 kts 358°
2026-05-04 16:47 52.51470 11.48193 35933 ft 439 kts 358°
2026-05-04 16:48 52.63570 11.49689 35938 ft 439 kts 358°
2026-05-04 16:49 52.75716 11.51196 35951 ft 439 kts 358°
2026-05-04 16:50 52.87855 11.52710 35951 ft 437 kts 358°
2026-05-04 16:51 52.96934 11.53846 35943 ft 438 kts 358°
2026-05-04 16:52 53.09004 11.53509 35959 ft 435 kts 346°
2026-05-04 16:53 53.17948 11.51503 35962 ft 435 kts 346°
2026-05-04 16:54 53.29865 11.48836 35959 ft 433 kts 346°
2026-05-04 16:55 53.47879 11.46099 35961 ft 439 kts 354°
2026-05-04 16:56 53.63082 11.46561 35964 ft 438 kts 354°
2026-05-04 16:57 53.72169 11.47352 35957 ft 440 kts
2026-05-04 16:58 53.83970 11.51930 35960 ft 435 kts
2026-05-04 17:00 54.01598 11.60013 33355 ft 450 kts
2026-05-04 17:00 54.10724 11.64198 30959 ft 461 kts
2026-05-04 17:01 54.16938 11.67058 29572 ft 459 kts
2026-05-04 17:01 54.23023 11.69883 28957 ft 448 kts
2026-05-04 17:02 54.29070 11.72677 28955 ft 454 kts
2026-05-04 17:03 54.38077 11.77724 28559 ft 464 kts 23°
2026-05-04 17:03 54.40856 11.80538 28025 ft 462 kts 27°
2026-05-04 17:03 54.46227 11.86286 26963 ft 454 kts 26°
2026-05-04 17:04 54.51550 11.91788 25902 ft 445 kts 26°
2026-05-04 17:04 54.56866 11.97158 24847 ft 443 kts 25°
2026-05-04 17:05 54.62100 12.02423 23807 ft 436 kts 25°
2026-05-04 17:05 54.67267 12.07630 22795 ft 427 kts 25°
2026-05-04 17:06 54.72340 12.12756 21782 ft 420 kts 25°
2026-05-04 17:06 54.74834 12.15279 21279 ft 416 kts 26°
2026-05-04 17:07 54.79783 12.20297 20271 ft 410 kts 26°
2026-05-04 17:07 54.81395 12.21936 19940 ft 408 kts 26°
2026-05-04 17:07 54.84632 12.25230 19261 ft 403 kts 26°
2026-05-04 17:07 54.87024 12.27667 18761 ft 400 kts 26°
2026-05-04 17:08 54.89417 12.30109 18251 ft 397 kts 26°
2026-05-04 17:08 54.94126 12.34927 17253 ft 391 kts 26°
2026-05-04 17:08 54.96458 12.37318 16752 ft 388 kts 26°
2026-05-04 17:09 54.98742 12.39664 16252 ft 383 kts 26°
2026-05-04 17:09 55.01006 12.41993 15750 ft 378 kts 26°
2026-05-04 17:09 55.03258 12.44311 15243 ft 372 kts 26°
2026-05-04 17:10 55.07606 12.48796 14234 ft 355 kts 26°
2026-05-04 17:10 55.13750 12.55148 12736 ft 332 kts 26°
2026-05-04 17:11 55.15692 12.57160 12239 ft 323 kts 25°
2026-05-04 17:11 55.17588 12.59129 11744 ft 316 kts 25°
2026-05-04 17:11 55.21312 12.62994 10747 ft 312 kts 25°
2026-05-04 17:12 55.23220 12.64787 10244 ft 309 kts 19°
2026-05-04 17:12 55.27106 12.67273 9454 ft 295 kts 13°
2026-05-04 17:13 55.32903 12.70521 8945 ft 292 kts 13°
2026-05-04 17:14 55.38683 12.73818 8938 ft 292 kts 13°
2026-05-04 17:14 55.40612 12.74921 8753 ft 292 kts 13°
2026-05-04 17:14 55.44436 12.77113 7962 ft 288 kts 14°
2026-05-04 17:15 55.46300 12.78186 7586 ft 278 kts 14°
2026-05-04 17:15 55.49842 12.80231 6771 ft 258 kts 14°
2026-05-04 17:16 55.53203 12.82163 6016 ft 253 kts 13°
2026-05-04 17:16 55.58156 12.85345 4897 ft 254 kts 18°
2026-05-04 17:17 55.59790 12.86449 4545 ft 245 kts 16°
2026-05-04 17:17 55.64461 12.88989 3643 ft 226 kts
2026-05-04 17:18 55.66007 12.89269 3349 ft 220 kts
2026-05-04 17:18 55.68891 12.88908 2816 ft 198 kts 324°
2026-05-04 17:19 55.70623 12.85504 2324 ft 177 kts 306°
2026-05-04 17:19 55.71387 12.81738 1988 ft 174 kts 257°
2026-05-04 17:20 55.69942 12.78307 1941 ft 164 kts 230°
2026-05-04 17:20 55.68262 12.75610 1525 ft 162 kts 226°
2026-05-04 17:20 55.67433 12.74338 1291 ft 153 kts 226°
2026-05-04 17:21 55.65936 12.72030 906 ft 138 kts 226°
2026-05-04 17:21 55.64502 12.69786 562 ft 137 kts 226°
2026-05-04 17:22 55.63799 12.68690 372 ft 136 kts 226°
2026-05-04 17:22 55.63084 12.67597 186 ft 135 kts 224°
2026-05-04 17:23 55.61407 12.64992 27 ft 58 kts 221°
2026-05-04 17:23 55.61240 12.64521 26 ft 41 kts 251°
2026-05-04 17:23 55.61263 12.64110 27 ft 13 kts
2026-05-04 17:24 55.61346 12.64187 27 ft 13 kts 31°
2026-05-04 17:24 55.61603 12.64480 26 ft 16 kts 34°
2026-05-04 17:25 55.61703 12.64565 26 ft 15 kts
2026-05-04 17:25 55.61947 12.64492 26 ft 20 kts 349°
2026-05-04 17:26 55.62241 12.64366 25 ft 21 kts 317°
2026-05-04 17:26 55.62506 12.63779 26 ft 19 kts 341°
2026-05-04 17:27 55.62577 12.63772 26 ft 2 kts
2026-05-04 17:27 55.62638 12.63794 25 ft 4 kts 24°
2026-05-04 17:28 55.62725 12.63902 26 ft 14 kts 33°
2026-05-04 17:29 55.62896 12.63872 26 ft 2 kts 10°
2026-05-04 17:29 55.62898 12.63872 26 ft 0 kts 10°